Location: Aldenham
(51.6667°N, 0.3500°W)
Time: 00:42:30
(UTC+00:00)

Vanguard 2 - Pass Details

Date: 24 February 2026
Orbit: 553 x 2896 km, 32.9° (Epoch: 7 March)

Event Time Altitude Azimuth Distance (km) Brightness Sun altitude
Exits shadow 05:35:52 - 225° (SW) 3,395 10.4 -13.4°
Reaches altitude 10° 05:38:32 10° 208° (SSW) 2,725 10.1 -13.0°
Maximum altitude 05:40:35 12° 189° (S) 2,411 10.0 -12.7°
Drops below altitude 10° 05:42:25 10° 169° (S) 2,360 10.2 -12.4°
Sets 05:46:14 0° 135° (SE) 2,979 11.3 -11.8°
